Regional Weather Roundup
Issued by NWS

Home | Current Version | Previous Version | Graphics & Text | Print | Product List | Glossary On
Versions: 1 2 3 4 5 6 7 8 9 10 11 12 13 14 15 16 17 18 19 20 21 22 23 24 25 26 27 28 29 30 31 32 33 34 35 36 37 38 39 40 41 42 43 44 45 46 47 48 49 50
000
ASUS43 KMPX 221210
RWRMN
WEATHER ROUNDUP FOR MINNESOTA
NATIONAL WEATHER SERVICE TWIN CITIES/CHANHASSEN MN
700 AM CDT MON SEP 22 2014


NOTE: "FAIR" INDICATES FEW OR NO CLOUDS BELOW 12,000 FEET WITH NO
SIGNIFICANT WEATHER AND/OR OBSTRUCTIONS TO VISIBILITY. N/A MEANS
CURRENT SKY AND/OR WEATHER CONDITIONS ARE NOT AVAILABLE.

MNZ060>063-068>070-221300-
   Twin Cities Metro

CITY           SKY/WX    TMP DP  RH WIND       PRES   REMARKS
TWIN CITIES    CLEAR     49  47  93 W5        30.25R
6HR MIN TEMP:  48; 6HR MAX TEMP:  53;

ST PAUL        FOG       48  47  96 CALM      30.26R VSB 1/4
CRYSTAL        CLEAR     45  42  89 CALM      30.24R FOG
BLAINE         CLEAR     46  46 100 CALM      30.25R FOG
LAKEVILLE      CLEAR     45  45 100 SW5       30.26R
EDEN PRAIRIE   CLEAR     46  45  96 SW5       30.25R FOG
6HR MIN TEMP:  46; 6HR MAX TEMP:  53;

SOUTH ST PAUL  CLEAR     48  47  95 CALM      30.25R
LAKE ELMO      FOG       41  41 100 CALM      30.25R VSB<1/4
$$
MNZ001>005-007-008-013>017-022>024-027-028-221300-
   Northwest Minnesota

CITY           SKY/WX    TMP DP  RH WIND       PRES   REMARKS
BEMIDJI        CLEAR     45  44  96 SW6       30.18S
HALLOCK        CLEAR     45  43  93 S7        30.12S
ROSEAU         CLEAR     46  41  81 S5        30.13S
WARROAD        CLEAR     48  45  87 SW7       30.13S
THIEF RVR FALL CLEAR     46  45  93 S7        30.16S
CROOKSTON      CLEAR     46  45  93 S7        30.17S
FOSSTON        CLEAR     45  45 100 S7        30.19S
DETROIT LAKES  CLEAR     48  46  93 SW6       30.22S
MOORHEAD       CLEAR     46  46 100 S8        30.21S
PARK RAPIDS    CLEAR     43  41  93 CALM      30.21R
MAHNOMEN       FAIR      46  45  97 S9        30.19S
$$
MNZ006-009>011-018-025>026-221300-
   North Central Minnesota

CITY           SKY/WX    TMP DP  RH WIND       PRES   REMARKS
BAUDETTE       CLEAR     47  45  93 SW6       30.13S
FLAG ISLAND    CLEAR     50  46  87 SW16      30.08S
INTL FALLS     FOG       43  43 100 SW5       30.13F VSB 1/2
6HR MIN TEMP:  39; 6HR MAX TEMP:  47;

WASKISH        CLEAR     43  43 100 CALM      30.16
BIG FORK       FOG       39  37  93 CALM      30.18R VSB 1/2
LONGVILLE      CLEAR     43  43 100 W3        30.20S
GRAND RAPIDS   CLEAR     46  43  87 W3        30.19S
CRANE LAKE     CLEAR     36  36 100 CALM      30.17R
ORR            CLEAR     43  41  93 CALM      30.15R
COOK           CLEAR     37  37 100 CALM      30.17S
WALKER         FAIR      46  44  95 W5        30.19S
$$
MNZ012-019>021-037-221300-
   Northeast Minnesota

CITY           SKY/WX    TMP DP  RH WIND       PRES   REMARKS
DULUTH         PTCLDY    48  45  89 W9        30.18S
6HR MIN TEMP:  44; 6HR MAX TEMP:  51;

ELY            CLOUDY    46  46 100 W6        30.16S FOG
HIBBING        FOG       36  34  92 CALM      30.19R VSB 1/4
EVELETH        FOG       41  39  93 SW3       30.19R VSB 1/2
DULUTH HARBOR  CLEAR     46  45  93 S7        30.20R
TWO HARBORS    CLEAR     45  39  81 W3        30.16S
SILVER BAY     CLEAR     43  43 100 CALM      30.15S
GRAND MARAIS     N/A     48  45  89 SW6       30.14R
G MARAIS ARPRT CLEAR     43  39  87 SW3       30.14R FOG
$$
MNZ029>031-032-039>041-046>048-054>057-064-221300-
   West Central Minnesota

CITY           SKY/WX    TMP DP  RH WIND       PRES   REMARKS
FERGUS FALLS   CLEAR     46  45  93 SE5       30.24S
WHEATON        CLEAR     45  43  93 S5        30.25R
MORRIS         CLEAR     45  43  93 S3        30.24R
ALEXANDRIA     CLEAR     49  46  90 SW9       30.25S
ELBOW LAKE     FAIR      43  42  97 S6        30.24R
WADENA         CLEAR     39  39 100 CALM      30.22S
GLENWOOD       CLEAR     46  45  93 SW8       30.26R
APPLETON       CLEAR     45  43  93 CALM      30.25R
BENSON         FOG       41  39  93 CALM      30.25S VSB 1/2
ORTONVILLE     CLEAR     45  43  93 CALM      30.24S
MADISON        CLEAR     48  46  93 SW3       30.25S
WILLMAR        FAIR      41  39  93 CALM      30.28R FOG
$$
MNZ033>034-036-042>043-049>051-058-059-221300-
   Central Minnesota

CITY           SKY/WX    TMP DP  RH WIND       PRES   REMARKS
ST CLOUD       CLEAR     44  42  93 CALM      30.25R FOG
6HR MIN TEMP:  43; 6HR MAX TEMP:  48;

SAUK CENTRE    FOG       43  43 100 CALM      30.25R VSB 1
PAYNESVILLE    CLEAR     37  37 100 CALM      30.26S
AITKIN         HAZE      43  37  81 CALM      30.21R VSB 1/4
PINE RIVER     FOG       36  36 100 CALM      30.25R VSB 3/4
BRAINERD       CLEAR     40  39  97 S3        30.23R
STAPLES        CLEAR     39  37  93 CALM      30.23
LONG PRAIRIE   FAIR      41  41 100 S3        30.25R
LITTLE FALLS   FOG       37  37 100 CALM      30.24R VSB 1/2
LITCHFIELD     CLEAR     46  46 100 W3        30.27R
BUFFALO        CLEAR     46  44  93 CALM      30.27R
MAPLE LAKE     FOG       44  44  99 W3        30.26S VSB 1
$$
MNZ037-044-045-052-053-221300-
   East Central Minnesota

CITY           SKY/WX    TMP DP  RH WIND       PRES   REMARKS
PRINCETON      CLOUDY    39  39 100 SW1       30.25R VSB 1/2
MORA           PTCLDY    37  37 100 CALM      30.25R
CAMBRIDGE      PTCLDY    45  37  76 CALM      30.23R HAZE
RUSH CITY      PTCLDY    40  40  97 CALM      30.24R FOG
MOOSE LAKE     CLEAR     43  41  93 CALM      30.20R
HINCKLEY       FOG       41  41 100 CALM      30.23S VSB 1/4
CLOQUET        CLEAR     45  43  93 W7        30.19F
MCGREGOR         N/A     37  37 100 CALM      30.22S VSB 1/2
$$
MNZ071>073-080-081-089-090-097-098-221300-
   Southwest Minnesota

CITY           SKY/WX    TMP DP  RH WIND       PRES   REMARKS
MONTEVIDEO     CLEAR     46  43  87 W5        30.27S
GRANITE FALLS  CLEAR     44  43  97 S6        30.28S
CANBY          CLEAR     52  47  82 SW8       30.26S
MARSHALL       CLEAR     50  45  81 SW10      30.25S
REDWOOD FALLS  FAIR      43  41  93 CALM      30.27R
OLIVIA           N/A     41  39  93 SW3       30.26S
PIPESTONE      CLEAR     43  43 100 CALM      30.28R
WINDOM         CLEAR     41  41 100 CALM      30.29S FOG
WORTHINGTON    CLEAR     45  43  93 SW5       30.29S
JACKSON        PTCLDY    46  43  87 W6        30.29S
TRACY          CLEAR     49  46  92 CALM      30.28R
SLAYTON        CLEAR     47  46  93 CALM      30.28S
$$
MNZ065>067-074>077-082>085-091>093-221300-
   South Central Minnesota

CITY           SKY/WX    TMP DP  RH WIND       PRES   REMARKS
MANKATO          N/A     45  39  81 W3        30.28R VSB<1/4
NEW ULM        CLEAR     39  39 100 CALM      30.28R FOG
ST JAMES       CLEAR     45  43  93 SW5       30.29S
FAIRMONT       CLEAR     45  39  81 SW5       30.29R
GLENCOE        CLEAR     46  43  91 W3        30.27R
FARIBAULT      PTCLDY    45  39  81 CALM      30.27R FOG
OWATONNA       FOG       43  41  93 CALM      30.28R VSB<1/4
WASECA         FOG       37  36  93 CALM      30.29R VSB 1/2
ALBERT LEA     CLEAR     46  46 100 CALM      30.28R
$$
MNZ078>079-086>088-094>096-221300-
   Southeast Minnesota

CITY           SKY/WX    TMP DP  RH WIND       PRES   REMARKS
ROCHESTER      CLEAR     43  42  97 SW3       30.27R
6HR MIN TEMP:  43; 6HR MAX TEMP:  48;

RED WING       MOCLDY    43  41  93 CALM      30.25R FOG
STANTON        CLEAR     42  40  94 CALM      30.25S FOG
DODGE CENTER   FOG       41  41 100 SW3       30.27R VSB 1/2
WINONA         CLEAR     43  41  93 CALM      30.27R
AUSTIN         FOG       41  39  93 CALM      30.27R VSB 1/2
PRESTON        CLEAR     43  43 100 SW3       30.27R
$$
ABBREVIATIONS USED IN REMARKS
   TC - TEMPERATURES IN CELSIUS
  WCI - WIND CHILL INDEX
   HX - HEAT INDEX
  VSB - VISIBILITY
$$



USA.gov is the U.S. government's official web portal to all federal, state and local government web resources and services.